2020/10/26,42100,42100,42100,42100
2020/10/27,42100,42100,42100,42100
2020/10/28,42100,42100,42100,42100
2020/10/29,42100,42100,42100,42100
2020/10/30,42100,42100,42100,42100
2020/11/02,39500,39500,39100,39100
2020/11/04,40200,40400,40200,40400
2020/11/05,40400,40400,40400,40400
2020/11/06,40400,40400,40400,40400
2020/11/09,40400,40400,40400,40400
2020/11/10,40400,40400,40400,40400
2020/11/11,40400,40400,40400,40400
2020/11/12,40400,40400,40400,40400
2020/11/13,40400,40400,40400,40400
2020/11/16,40400,40400,40400,40400
2020/11/17,40400,40400,40400,40400
2020/11/18,40400,40400,40400,40400
2020/11/19,40400,40400,40400,40400
2020/11/20,40400,40400,40400,40400
2020/11/24,40400,40400,40400,40400
2020/11/25,40400,40400,40400,40400
2020/11/26,44800,44800,44800,44800
2020/11/27,44800,44800,44800,44800
2020/11/30,44800,44800,44800,44800
2020/12/01,44800,44800,44800,44800
2020/12/02,44800,44800,44800,44800
2020/12/03,44800,44800,44800,44800
2020/12/04,45000,45000,45000,45000
2020/12/07,45000,45000,45000,45000
2020/12/08,45000,45000,45000,45000
2020/12/09,45000,45000,45000,45000
2020/12/10,45000,45000,45000,45000
2020/12/11,45000,45000,45000,45000
2020/12/14,45000,45000,45000,45000
2020/12/15,45000,45000,45000,45000
2020/12/16,45000,45000,45000,45000
2020/12/17,45000,45000,45000,45000
2020/12/18,45000,45000,45000,45000
2020/12/21,45000,45000,45000,45000
2020/12/22,45000,45000,45000,45000
2020/12/23,45000,45000,45000,45000
2020/12/24,45000,45000,45000,45000
2020/12/25,45000,45000,45000,45000
2020/12/28,45600,45600,45600,45600
2020/12/29,45600,45600,45600,45600
2020/12/30,45600,45600,45600,45600
2021/01/04,45600,45600,45600,45600
2021/01/05,45600,45600,45600,45600
2021/01/06,46700,46700,46700,46700
2021/01/07,46700,46700,46700,46700
2021/01/08,46700,46700,46700,46700
2021/01/12,46700,46700,46700,46700
2021/01/13,46700,46700,46700,46700
2021/01/14,46700,46700,46700,46700
2021/01/15,46700,46700,46700,46700
2021/01/18,46700,46700,46700,46700
2021/01/19,46700,46700,46700,46700
2021/01/20,46700,46700,46700,46700
2021/01/21,46700,46700,46700,46700
2021/01/22,46700,46700,46700,46700
2021/01/25,46700,46700,46700,46700
2021/01/26,46700,46700,46700,46700
2021/01/27,48100,48100,48100,48100
2021/01/28,48100,48100,48100,48100
2021/01/29,48100,48100,48100,48100
2021/02/01,48100,48100,48100,48100
2021/02/02,48100,48100,48100,48100
2021/02/03,48100,48100,48100,48100
2021/02/04,48100,48100,48100,48100
2021/02/05,50100,50100,50100,50100
2021/02/08,50100,50100,50100,50100
2021/02/09,50100,50100,50100,50100
2021/02/10,50100,50100,50100,50100
2021/02/12,50100,50100,50100,50100
2021/02/15,52500,52500,52500,52500
2021/02/16,52500,52500,52500,52500
2021/02/17,52500,52500,52500,52500
2021/02/18,52500,52500,52500,52500
2021/02/19,52500,52500,52500,52500
2021/02/22,52500,52500,52500,52500
2021/02/24,52500,52500,52500,52500
2021/02/25,54700,54700,54700,54700
2021/02/26,54700,54700,54700,54700
2021/03/01,54700,54700,54700,54700
2021/03/02,54700,54700,54700,54700
2021/03/03,54700,54700,54700,54700
2021/03/04,54700,54700,54700,54700
2021/03/05,58200,58200,58200,58200
2021/03/08,60000,60000,60000,60000
2021/03/09,60000,60000,60000,60000
2021/03/10,60000,60000,60000,60000
2021/03/11,60000,60000,60000,60000
2021/03/12,60000,60000,60000,60000
2021/03/15,60000,60000,60000,60000
2021/03/16,60000,60000,60000,60000
2021/03/17,60000,60000,60000,60000
2021/03/18,60000,60000,60000,60000
2021/03/19,57000,57000,57000,57000
2021/03/22,57000,57000,57000,57000
2021/03/23,57000,57000,57000,57000
2021/03/24,57100,57100,55500,55500
2021/03/25,55500,55500,55500,55500
2021/03/26,55500,55500,55500,55500
2021/03/29,56900,56900,56900,56900
2021/03/30,57600,57600,57500,57500
2021/03/31,57800,57800,57800,57800
2021/04/01,57000,57000,57000,57000
2021/04/02,58200,58500,58200,58500
2021/04/05,58500,58500,58500,58500
2021/04/06,58500,58500,58500,58500
2021/04/07,58500,58500,58500,58500
2021/04/08,58500,58500,58500,58500
2021/04/09,58500,58500,58500,58500
2021/04/12,58000,58000,57500,57500
2021/04/13,57500,57500,57500,57500
2021/04/14,57500,57500,57500,57500
2021/04/15,59500,59500,59500,59500
2021/04/16,60000,60000,60000,60000
2021/04/19,59400,59400,59400,59400
2021/04/20,59800,60700,59500,60700
2021/04/21,59200,59900,59200,59900
2021/04/22,59200,59200,58400,59000
2021/04/23,58410,59200,58410,58860
